This is the latest recevied weather packets stored in our database for station/object K4CRS-13. If no packets are shown the sender has not sent any weather packets the latest 10 day(s).
| Time | Temp. | Humidity | Pressure | Rain* | Wind** | Luminosity | Snow |
|---|---|---|---|---|---|---|---|
| 1787420734 | 32.78° C | 51% | 1052 hPa | 0 mm | - | 710 W/m² | - |
| 1787420430 | 32.22° C | 52% | 1052.3 hPa | 0 mm | - | 784 W/m² | - |
| 1787420127 | 32.78° C | 54% | 1052.2 hPa | 0 mm | - | 777 W/m² | - |
| 1787419822 | 32.22° C | 53% | 1052.3 hPa | 0 mm | - | 768 W/m² | - |
| 1787419518 | 31.67° C | 54% | 1052.3 hPa | 0 mm | - | 769 W/m² | - |
| 1787419214 | 31.67° C | 54% | 1052.4 hPa | 0 mm | - | 761 W/m² | - |
| 1787418909 | 31.67° C | 52% | 1052.3 hPa | 0 mm | - | 759 W/m² | - |
| 1787418605 | 31.67° C | 56% | 1052.3 hPa | 0 mm | - | 761 W/m² | - |
| 1787418301 | 31.67° C | 55% | 1052.5 hPa | 0 mm | - | 759 W/m² | - |
| 1787417996 | 31.11° C | 56% | 1052.3 hPa | 0 mm | - | 756 W/m² | - |
| 1787417692 | 31.67° C | 55% | 1052.4 hPa | 0 mm | - | 748 W/m² | - |
| 1787417392 | 31.11° C | 57% | 1052.3 hPa | 0 mm | - | 745 W/m² | - |
| 1787417088 | 31.11° C | 57% | 1052.5 hPa | 0 mm | - | 740 W/m² | - |
| 1787416784 | 31.11° C | 58% | 1052.8 hPa | 0 mm | - | 740 W/m² | - |
| 1787416480 | 31.11° C | 58% | 1052.8 hPa | 0 mm | - | 732 W/m² | - |
| 1787416173 | 31.11° C | 60% | 1052.5 hPa | 0 mm | - | 726 W/m² | - |
| 1787415869 | 31.11° C | 57% | 1052.6 hPa | 0 mm | - | 717 W/m² | - |
| 1787415568 | 31.11° C | 60% | 1052.3 hPa | 0 mm | - | 715 W/m² | - |
| 1787415263 | 30.56° C | 60% | 1052.4 hPa | 0 mm | - | 704 W/m² | - |
| 1787414959 | 30.56° C | 61% | 1052.8 hPa | 0 mm | - | 702 W/m² | - |
| 1787414654 | 30.56° C | 63% | 1052.6 hPa | 0 mm | - | 693 W/m² | - |
| 1787414354 | 31.11° C | 60% | 1052.6 hPa | 0 mm | - | 680 W/m² | - |
| 1787414048 | 30.56° C | 64% | 1052.6 hPa | 0 mm | - | 671 W/m² | - |
| 1787413748 | 30° C | 61% | 1052.6 hPa | 0 mm | - | 663 W/m² | - |
| 1787413442 | 30.56° C | 62% | 1052.5 hPa | 0 mm | - | 649 W/m² | - |
* Rain latest hour (hover to see other rain measurements)
** Current wind speed in m/s (hover to see current wind gust speed)